CAPE
2537 2103 1712 1544 1301 1655 1563 1938 2631 2760 2851 3046 2504 2068 2218 2028 1568 1539 1951 2169 2142 1576
2693 2471 1697 1683 1776 1794 1940 2014 2859 2985 3203 3250 3067 2304 2118 2002 1946 1510 1604 1301 1720 1794
2524 2659 2290 2138 2237 1655 1887 2840 2725 3066 3130 3288 3398 3256 2751 1948 2193 2327 1512 1047 1235 1282
2380 2416 2444 2052 2126 2320 2246 2612 3257 3128 2560 2575 2910 3521 3443 3236 2533 2792 2618 2024 1492 2077
2296 2275 2013 2021 1898 2214 2406 2465 3152 3407 3194 3359 3272 3527 3613 3273 2899 2990 3031 2861 2705 2284
2026 2099 1974 1851 1951 1990 2522 2731 2428 2882 3487 3357 3127 3169 3291 3181 3233 2794 2684 2699 3052 2942
1739 1894 1805 1948 2240 2183 2613 2924 2975 2998 3142 3345 3357 3129 3037 2934 3132 3445 2888 2891 2927 2945
2039 2090 2305 2416 2668 2901 3018 3345 3556 3685 3780 3775 3483 3069 3198 3243 3140 3201 3221 2840 2907 2977
2703 2620 2713 2952 3248 3562 3637 3576 3221 3011 3277 3910 3474 2635 2320 2585 3279 3344 3528 3452 2818 3292
3029 2889 2924 2492 2147 1969 2160 2542 2588 2955 2790 3009 3503 2147 1984 1565 2414 2157 2282 3083 3227 3209
2044 1828 1195 1402 1271 1365 1435 1805 2187 2393 2806 2541 1937 706 941 702 752 1257 1902 2379 3033 3395
1918 1650 1378 1257 1370 1544 1381 1644 1696 1668 1777 1850 1953 1314 355 224 636 567 1234 1865 2291 2953
1187 1284 1559 1613 1580 1441 1440 1398 1153 957 937 968 886 449 151 0 285 600 854 1400 1539 978
1328 1467 1323 1334 1516 1560 1468 1386 1437 1453 1531 1584 1277 821 205 82 143 295 419 694 985 771
CIN
-25 -9 -7 -6 -0 -0 -0 -0 -2 -5 -0 -0 -0 -0 -0 -0 -0 -0 -0 -0 -0 -0
-50 -37 -21 -20 -13 -0 -0 -0 -5 -8 -0 -0 -3 -3 -0 -0 -0 -0 -4 -20 -14 -7
-57 -54 -42 -33 -18 -7 -0 -0 -0 -6 -2 -0 -0 -2 -3 -0 -0 -0 -10 -29 -39 -48
-62 -59 -56 -42 -37 -22 -5 -0 -3 -3 -1 -1 -0 -0 -7 -0 -1 -0 -0 -5 -28 -7
-75 -78 -47 -51 -36 -33 -24 -14 -3 -2 -1 -0 -0 -0 -2 -0 -0 -0 -0 -0 -0 -5
-65 -63 -58 -40 -42 -41 -40 -27 -17 -8 -1 -1 -1 -1 -0 -3 -0 -1 -0 -0 -0 -0
-81 -73 -53 -50 -59 -33 -44 -39 -28 -18 -9 -6 -4 -4 -1 -0 -0 -0 -0 -0 -0 -0
-115 -94 -74 -55 -42 -36 -20 -7 -10 -6 -4 -5 -13 -26 -27 -18 -6 -0 -0 -0 -0 -0
-67 -65 -46 -26 -13 -6 -11 -26 -32 -40 -19 -0 -5 -45 -77 -60 -13 -3 -0 -0 -1 -0
-20 -24 -10 -38 -57 -63 -52 -12 -37 -7 -7 -22 -11 -67 -82 -109 -16 -41 -42 -1 -0 -0
-45 -67 -128 -90 -89 -88 -39 -20 -7 -5 -12 -15 -54 -164 -140 -182 -138 -63 -54 -44 -8 -0
-11 -28 -54 -76 -57 -10 -30 -12 -9 -17 -24 -23 -14 -51 -177 -184 -99 -81 -38 -32 -18 -0
-46 -28 -6 -2 -7 -12 -0 -0 -16 -57 -56 -44 -64 -121 -239 -0 -145 -64 -30 -31 -26 -64
-32 -17 -16 -9 -0 -0 -0 -1 -7 -2 -5 -8 -20 -52 -204 -201 -217 -113 -92 -39 -21 -67
Wind_Speed
9 9 8 9 5 7 8 12 14 11 10 9 9 10 10 8 6 3 4 6 5 3
11 10 11 8 11 11 10 10 12 13 13 10 12 13 11 6 4 1 3 4 5 6
12 12 13 12 11 11 11 12 11 14 15 12 13 14 13 7 9 6 5 6 8 7
13 14 15 16 16 15 15 15 12 13 13 14 14 14 16 10 8 10 8 8 10 10
12 14 16 17 18 18 17 15 14 14 16 16 17 15 17 16 14 14 13 10 11 12
12 12 13 16 16 18 18 17 13 15 15 18 18 18 19 16 18 19 18 15 15 15
12 12 14 18 19 19 18 18 18 16 16 18 20 19 20 21 21 20 22 20 18 19
16 16 18 19 20 24 24 21 21 23 24 21 20 24 23 22 24 23 21 20 21 20
22 22 24 24 22 29 26 26 26 27 27 28 27 28 29 27 26 27 27 25 24 24
31 32 29 31 28 28 24 27 26 30 27 29 35 36 35 34 31 32 32 31 31 32
33 32 31 28 32 24 33 32 27 22 22 26 26 39 31 31 29 30 32 37 41 31
33 33 33 33 32 29 33 35 32 32 30 30 28 35 33 34 32 31 30 29 31 33
33 33 33 34 35 35 33 33 34 34 33 32 29 39 39 nan 33 33 31 36 33 38
31 34 36 36 35 36 36 37 36 35 35 34 33 36 43 nan 36 36 33 32 31 31
Wind_Direction
320 303 310 326 321 291 254 281 277 286 302 326 330 357 355 15 61 26 22 32 31 45
307 316 308 319 321 317 293 281 298 300 297 306 313 323 336 2 347 344 352 347 354 4
311 312 315 311 313 309 303 293 278 282 282 281 288 298 312 321 326 319 309 308 305 311
308 309 306 309 310 313 310 297 290 285 274 279 286 290 298 295 285 306 298 295 299 318
312 308 311 312 315 316 315 304 294 290 289 282 283 281 282 286 279 287 293 291 303 317
305 312 311 305 310 319 316 308 303 295 283 281 281 286 282 279 287 289 287 292 298 300
309 324 320 317 314 308 303 300 299 295 288 286 283 283 285 286 283 281 288 292 293 294
295 293 307 311 301 307 302 303 302 298 295 290 289 288 289 282 279 278 278 282 288 294
279 279 286 291 295 312 310 293 292 290 289 290 285 285 287 285 283 280 279 278 280 283
271 270 278 280 287 291 298 283 305 305 270 281 281 277 273 268 275 276 278 276 274 278
275 280 283 283 281 276 285 292 298 291 290 287 294 260 278 294 288 297 290 273 271 269
276 282 286 286 282 278 275 275 284 283 279 276 274 293 286 283 288 296 295 302 264 254
271 274 276 276 276 279 280 282 281 283 283 283 285 296 295 nan 282 283 287 282 292 276
273 273 273 274 276 276 278 273 276 275 276 281 283 281 288 nan 281 282 279 282 291 270